Back to catalog

DELTA 1 DEB

AlivePO
NORAD 21353·DEBRIS·🇺🇸 United States

Launched Jun 12, 1975 from Vandenberg Space Force Base

Loading…

Next Passes (next 24 hours)

TLE

FreshSource: Space-Track

Epoch: Sep 14, 2026, 02:02 UTC

1 21353U 75052BX  26257.08485633  .00000003  00000-0  14618-3 0  9998
2 21353  99.5266 103.9778 0521749 138.2117  12.3571 12.40781523598654

Track DELTA 1 DEB in real time with AllMySat

Download on the App Store